sat.trackr.live / text

‹ back to catalog

2026-027B

NORAD 67747 · 2026-027B

PAYLOAD ACTIVE UNKNOWN

§ Identity

Operator
Country
PRC
Launch date
2026-02-12
Launch site
SCSLA
Launch vehicle
Mass (kg)
RCS (m²)

External: N2YO · Heavens-Above · Gunter

§ Orbital elements

Epoch: 2026-09-20T08:12:44.754624Z

Period
94.72 min
Inclination
97.5170°
Eccentricity
0.0008612
Mean motion
15.20229358 rev/d
Perigee alt
499.2 km
Apogee alt
511.1 km
Semi-major
6,883.3 km
B*
1.9840e-4
RAAN
31.0634°
Arg perigee
241.7744°
Mean anomaly
118.2622°
Rev number
3,341

§ Raw data

2026-027B1 67747U 26027B   26263.34218466  .00004235  00000+0  19840-3 0  99992 67747  97.5170  31.0634 0008612 241.7744 118.2622 15.20229358 33415

JSON: /api/v1/satellites/67747 · /tle

For live sub-satellite position, see the globe view (requires WebGL).

§ Visibility from observer

Set your observer location to see the next 7 days of passes ≥ 10°. The values pass through the URL so the page stays shareable.

No JS? Fill the form by hand. The geolocation button needs JavaScript.